| time (UTC) | temp F | wind direction | speed MPH | gust MPH | rain 1hr in | rain 24hr in | rain mn in | humidity % | barometer mb |
| 20260504221104 | 58 | 0 | 0.0 | 0.0 | 0.00 | 0.07 | 0.00 | 90 | 1008.1 |
| 20260504221004 | 58 | 0 | 0.0 | 0.0 | 0.00 | 0.07 | 0.00 | 90 | 1008.1 |
| 20260504220904 | 58 | 0 | 0.0 | 0.0 | 0.00 | 0.07 | 0.00 | 90 | 1008.2 |
| 20260504220804 | 58 | 270 | 0.0 | 3.0 | 0.00 | 0.07 | 0.00 | 90 | 1008.1 |
| 20260504220704 | 58 | 288 | 0.0 | 3.0 | 0.00 | 0.07 | 0.00 | 90 | 1008.2 |
| 20260504220604 | 58 | 303 | 1.0 | 3.0 | 0.00 | 0.07 | 0.00 | 90 | 1008.1 |
| 20260504220504 | 58 | 303 | 1.0 | 3.0 | 0.00 | 0.07 | 0.00 | 90 | 1008.1 |
| 20260504220404 | 58 | 303 | 1.0 | 3.0 | 0.00 | 0.07 | 0.00 | 90 | 1008.1 |
| 20260504220304 | 58 | 303 | 1.0 | 3.0 | 0.00 | 0.07 | 0.00 | 90 | 1008.1 |
| 20260504220203 | 58 | 303 | 1.0 | 3.0 | 0.00 | 0.07 | 0.00 | 90 | 1008.1 |
| 20260504220103 | 58 | 303 | 1.0 | 3.0 | 0.00 | 0.07 | 0.00 | 90 | 1008.1 |
| 20260504220047 | 58 | 305 | 1.0 | 3.0 | 0.00 | 0.07 | 0.00 | 90 | 1008.1 |
| 20260504215903 | 58 | 262 | 1.0 | 3.0 | 0.00 | 0.07 | 0.07 | 90 | 1008.1 |
| 20260504215803 | 58 | 257 | 1.0 | 3.0 | 0.00 | 0.07 | 0.07 | 90 | 1008.2 |
| 20260504215703 | 58 | 231 | 1.0 | 3.0 | 0.00 | 0.07 | 0.07 | 90 | 1008.2 |
| 20260504215603 | 58 | 208 | 1.0 | 2.0 | 0.00 | 0.07 | 0.07 | 90 | 1008.2 |
| 20260504215506 | 58 | 205 | 1.0 | 2.0 | 0.00 | 0.07 | 0.07 | 90 | 1008.3 |
| 20260504215404 | 58 | 215 | 1.0 | 4.0 | 0.00 | 0.07 | 0.07 | 90 | 1008.2 |
| 20260504215305 | 58 | 240 | 1.0 | 4.0 | 0.00 | 0.07 | 0.07 | 90 | 1008.2 |
| 20260504215204 | 58 | 240 | 1.0 | 4.0 | 0.00 | 0.07 | 0.07 | 90 | 1008.2 |
| 20260504215104 | 58 | 240 | 1.0 | 4.0 | 0.00 | 0.07 | 0.07 | 90 | 1008.2 |
| 20260504215004 | 58 | 250 | 1.0 | 4.0 | 0.00 | 0.07 | 0.07 | 89 | 1008.2 |
| 20260504214904 | 58 | 260 | 1.0 | 4.0 | 0.00 | 0.07 | 0.07 | 89 | 1008.2 |
| 20260504214804 | 58 | 262 | 1.0 | 4.0 | 0.00 | 0.07 | 0.07 | 89 | 1008.2 |
| 20260504214704 | 58 | 261 | 1.0 | 4.0 | 0.00 | 0.07 | 0.07 | 89 | 1008.2 |
| 20260504214604 | 58 | 261 | 1.0 | 4.0 | 0.00 | 0.07 | 0.07 | 89 | 1008.2 |
| 20260504214503 | 58 | 268 | 1.0 | 4.0 | 0.00 | 0.07 | 0.07 | 89 | 1008.1 |
| 20260504214403 | 58 | 285 | 0.0 | 4.0 | 0.00 | 0.07 | 0.07 | 89 | 1008.2 |
| 20260504214303 | 58 | 0 | 0.0 | 0.0 | 0.00 | 0.07 | 0.07 | 89 | 1008.3 |
| 20260504214203 | 58 | 225 | 0.0 | 2.0 | 0.00 | 0.07 | 0.07 | 89 | 1008.3 |
| 20260504214103 | 58 | 254 | 0.0 | 2.0 | 0.00 | 0.07 | 0.07 | 89 | 1008.4 |
| 20260504214003 | 58 | 256 | 0.0 | 2.0 | 0.00 | 0.07 | 0.07 | 89 | 1008.2 |
| 20260504213903 | 58 | 248 | 0.0 | 2.0 | 0.00 | 0.07 | 0.07 | 89 | 1008.2 |
| 20260504213803 | 58 | 240 | 1.0 | 2.0 | 0.00 | 0.07 | 0.07 | 89 | 1008.4 |
| 20260504213703 | 58 | 236 | 1.0 | 2.0 | 0.00 | 0.07 | 0.07 | 89 | 1008.4 |
| 20260504213603 | 58 | 224 | 1.0 | 2.0 | 0.00 | 0.07 | 0.07 | 89 | 1008.4 |
| 20260504213503 | 58 | 227 | 1.0 | 2.0 | 0.00 | 0.07 | 0.07 | 89 | 1008.3 |
| 20260504213404 | 58 | 225 | 1.0 | 2.0 | 0.00 | 0.07 | 0.07 | 88 | 1008.4 |
| 20260504213304 | 58 | 223 | 1.0 | 2.0 | 0.00 | 0.07 | 0.07 | 88 | 1008.4 |
| 20260504213204 | 58 | 223 | 1.0 | 2.0 | 0.00 | 0.07 | 0.07 | 88 | 1008.4 |
| 20260504213104 | 58 | 211 | 1.0 | 3.0 | 0.00 | 0.07 | 0.07 | 88 | 1008.3 |
| 20260504213004 | 58 | 202 | 1.0 | 3.0 | 0.00 | 0.07 | 0.07 | 88 | 1008.2 |
| 20260504212904 | 58 | 201 | 1.0 | 3.0 | 0.00 | 0.07 | 0.07 | 88 | 1008.4 |
| 20260504212804 | 58 | 200 | 1.0 | 3.0 | 0.00 | 0.07 | 0.07 | 88 | 1008.2 |
| 20260504212704 | 58 | 195 | 1.0 | 3.0 | 0.00 | 0.07 | 0.07 | 88 | 1008.2 |
| 20260504212604 | 58 | 202 | 1.0 | 3.0 | 0.00 | 0.07 | 0.07 | 88 | 1008.3 |
| 20260504212504 | 58 | 195 | 1.0 | 3.0 | 0.00 | 0.07 | 0.07 | 88 | 1008.2 |
| 20260504212403 | 58 | 190 | 1.0 | 3.0 | 0.00 | 0.07 | 0.07 | 88 | 1008.1 |
| 20260504212304 | 58 | 195 | 1.0 | 3.0 | 0.00 | 0.07 | 0.07 | 88 | 1008.2 |
| 20260504212203 | 58 | 195 | 1.0 | 3.0 | 0.00 | 0.07 | 0.07 | 88 | 1008.3 |
| 20260504212104 | 58 | 201 | 2.0 | 3.0 | 0.01 | 0.07 | 0.07 | 88 | 1008.4 |
| 20260504211703 | 58 | 247 | 0.0 | 3.0 | 0.01 | 0.07 | 0.07 | 87 | 1008.3 |
| 20260504211603 | 58 | 251 | 0.0 | 3.0 | 0.01 | 0.07 | 0.07 | 87 | 1008.2 |
| 20260504211503 | 58 | 251 | 0.0 | 3.0 | 0.01 | 0.07 | 0.07 | 87 | 1008.2 |
| 20260504211403 | 58 | 254 | 0.0 | 3.0 | 0.01 | 0.07 | 0.07 | 87 | 1008.2 |
| 20260504211303 | 58 | 270 | 0.0 | 4.0 | 0.01 | 0.07 | 0.07 | 87 | 1008.2 |
| 20260504211203 | 58 | 267 | 1.0 | 4.0 | 0.01 | 0.07 | 0.07 | 87 | 1008.1 |
| 20260504211103 | 58 | 253 | 1.0 | 4.0 | 0.01 | 0.07 | 0.07 | 87 | 1008.2 |
| 20260504211003 | 58 | 246 | 1.0 | 4.0 | 0.01 | 0.07 | 0.07 | 87 | 1008.2 |
| 20260504210903 | 58 | 235 | 1.0 | 4.0 | 0.01 | 0.07 | 0.07 | 87 | 1008.1 |
| 20260504210803 | 58 | 241 | 2.0 | 4.0 | 0.01 | 0.07 | 0.07 | 87 | 1008.3 |
| 20260504210704 | 58 | 246 | 2.0 | 4.0 | 0.01 | 0.07 | 0.07 | 86 | 1008.2 |
| 20260504210604 | 58 | 246 | 2.0 | 4.0 | 0.01 | 0.07 | 0.07 | 86 | 1008.2 |
| 20260504210504 | 59 | 243 | 3.0 | 6.0 | 0.01 | 0.07 | 0.07 | 86 | 1008.3 |
| 20260504210404 | 59 | 240 | 3.0 | 6.0 | 0.01 | 0.07 | 0.07 | 86 | 1008.2 |
| 20260504210304 | 59 | 235 | 4.0 | 6.0 | 0.01 | 0.07 | 0.07 | 86 | 1008.3 |
| 20260504210204 | 59 | 227 | 4.0 | 6.0 | 0.01 | 0.07 | 0.07 | 86 | 1008.4 |
| 20260504210104 | 59 | 225 | 4.0 | 6.0 | 0.01 | 0.07 | 0.07 | 86 | 1008.4 |
| 20260504210004 | 59 | 229 | 4.0 | 6.0 | 0.01 | 0.07 | 0.07 | 86 | 1008.4 |
| 20260504205904 | 59 | 237 | 4.0 | 6.0 | 0.01 | 0.07 | 0.07 | 86 | 1008.5 |
| 20260504205803 | 59 | 237 | 4.0 | 6.0 | 0.01 | 0.07 | 0.07 | 85 | 1008.6 |
| 20260504205704 | 59 | 232 | 4.0 | 6.0 | 0.01 | 0.07 | 0.07 | 85 | 1008.5 |
| 20260504205603 | 59 | 232 | 4.0 | 6.0 | 0.01 | 0.07 | 0.07 | 85 | 1008.7 |
| 20260504205503 | 59 | 229 | 4.0 | 6.0 | 0.01 | 0.07 | 0.07 | 85 | 1008.6 |
| 20260504205403 | 59 | 231 | 4.0 | 6.0 | 0.01 | 0.07 | 0.07 | 85 | 1008.6 |
| 20260504205203 | 59 | 237 | 4.0 | 5.0 | 0.01 | 0.07 | 0.07 | 85 | 1008.4 |
| 20260504205103 | 59 | 244 | 4.0 | 5.0 | 0.01 | 0.07 | 0.07 | 84 | 1008.5 |
| 20260504205003 | 59 | 240 | 4.0 | 5.0 | 0.01 | 0.07 | 0.07 | 84 | 1008.4 |
| 20260504204903 | 59 | 230 | 4.0 | 5.0 | 0.01 | 0.07 | 0.07 | 84 | 1008.4 |
| 20260504204803 | 59 | 229 | 4.0 | 5.0 | 0.01 | 0.07 | 0.07 | 84 | 1008.3 |
| 20260504204704 | 59 | 229 | 4.0 | 5.0 | 0.01 | 0.07 | 0.07 | 84 | 1008.4 |
| 20260504204604 | 59 | 223 | 4.0 | 5.0 | 0.01 | 0.07 | 0.07 | 84 | 1008.3 |
| 20260504204504 | 59 | 217 | 4.0 | 5.0 | 0.01 | 0.07 | 0.07 | 83 | 1008.4 |
| 20260504204404 | 59 | 213 | 3.0 | 5.0 | 0.01 | 0.07 | 0.07 | 83 | 1008.5 |
| 20260504204304 | 59 | 204 | 3.0 | 5.0 | 0.01 | 0.07 | 0.07 | 83 | 1008.5 |
| 20260504204204 | 59 | 204 | 2.0 | 5.0 | 0.01 | 0.07 | 0.07 | 83 | 1008.5 |
| 20260504204104 | 59 | 186 | 2.0 | 5.0 | 0.01 | 0.07 | 0.07 | 83 | 1008.4 |
| 20260504204004 | 59 | 177 | 2.0 | 4.0 | 0.01 | 0.07 | 0.07 | 83 | 1008.3 |
| 20260504203904 | 59 | 179 | 2.0 | 4.0 | 0.01 | 0.07 | 0.07 | 83 | 1008.4 |
| 20260504203804 | 59 | 168 | 2.0 | 5.0 | 0.01 | 0.07 | 0.07 | 83 | 1008.4 |
| 20260504203704 | 59 | 178 | 2.0 | 5.0 | 0.01 | 0.07 | 0.07 | 83 | 1008.4 |
| 20260504203604 | 59 | 190 | 2.0 | 5.0 | 0.01 | 0.07 | 0.07 | 82 | 1008.4 |
| 20260504203503 | 59 | 214 | 3.0 | 7.0 | 0.01 | 0.07 | 0.07 | 82 | 1008.4 |
| 20260504203403 | 59 | 228 | 3.0 | 7.0 | 0.01 | 0.07 | 0.07 | 82 | 1008.5 |
| 20260504203303 | 59 | 231 | 4.0 | 7.0 | 0.01 | 0.07 | 0.07 | 82 | 1008.4 |
| 20260504203204 | 59 | 238 | 4.0 | 7.0 | 0.01 | 0.07 | 0.07 | 82 | 1008.6 |
| 20260504202905 | 59 | 250 | 5.0 | 7.0 | 0.01 | 0.07 | 0.07 | 82 | 1008.6 |
| 20260504202803 | 59 | 257 | 5.0 | 7.0 | 0.01 | 0.07 | 0.07 | 82 | 1008.4 |
| 20260504202603 | 60 | 267 | 5.0 | 7.0 | 0.01 | 0.07 | 0.07 | 81 | 1008.5 |
| 20260504202503 | 60 | 266 | 5.0 | 7.0 | 0.01 | 0.07 | 0.07 | 81 | 1008.4 |
| 20260504202403 | 60 | 265 | 5.0 | 7.0 | 0.01 | 0.07 | 0.07 | 81 | 1008.6 |
| 20260504202304 | 60 | 270 | 5.0 | 6.0 | 0.01 | 0.07 | 0.07 | 81 | 1008.4 |
| 20260504202203 | 60 | 264 | 5.0 | 6.0 | 0.00 | 0.06 | 0.06 | 81 | 1008.5 |
| 20260504202104 | 60 | 260 | 5.0 | 6.0 | 0.00 | 0.06 | 0.06 | 81 | 1008.4 |
| 20260504201704 | 60 | 245 | 5.0 | 8.0 | 0.00 | 0.06 | 0.06 | 80 | 1008.7 |
| 20260504201604 | 60 | 252 | 5.0 | 8.0 | 0.00 | 0.06 | 0.06 | 80 | 1008.6 |
| 20260504201504 | 60 | 260 | 5.0 | 8.0 | 0.00 | 0.06 | 0.06 | 80 | 1008.7 |
| 20260504201404 | 60 | 262 | 5.0 | 8.0 | 0.00 | 0.06 | 0.06 | 80 | 1008.6 |
| 20260504201305 | 60 | 264 | 5.0 | 8.0 | 0.00 | 0.06 | 0.06 | 80 | 1008.7 |
| 20260504201204 | 60 | 266 | 5.0 | 8.0 | 0.00 | 0.06 | 0.06 | 80 | 1008.5 |
| 20260504201104 | 60 | 265 | 5.0 | 8.0 | 0.00 | 0.06 | 0.06 | 80 | 1008.6 |
| 20260504201004 | 60 | 270 | 4.0 | 8.0 | 0.00 | 0.06 | 0.06 | 80 | 1008.5 |
| 20260504200904 | 60 | 284 | 4.0 | 8.0 | 0.00 | 0.06 | 0.06 | 80 | 1008.6 |
| 20260504200805 | 60 | 288 | 4.0 | 5.0 | 0.00 | 0.06 | 0.06 | 80 | 1008.5 |
| 20260504200704 | 60 | 285 | 4.0 | 5.0 | 0.00 | 0.06 | 0.06 | 80 | 1008.6 |
| 20260504200604 | 60 | 280 | 4.0 | 5.0 | 0.00 | 0.06 | 0.06 | 79 | 1008.4 |
| 20260504200504 | 60 | 278 | 4.0 | 5.0 | 0.00 | 0.06 | 0.06 | 79 | 1008.4 |
| 20260504200404 | 60 | 280 | 4.0 | 5.0 | 0.00 | 0.06 | 0.06 | 79 | 1008.4 |
| 20260504200304 | 60 | 278 | 4.0 | 5.0 | 0.00 | 0.06 | 0.06 | 79 | 1008.4 |
| 20260504200203 | 60 | 275 | 4.0 | 8.0 | 0.00 | 0.06 | 0.06 | 79 | 1008.4 |
| 20260504200104 | 60 | 278 | 4.0 | 8.0 | 0.00 | 0.06 | 0.06 | 79 | 1008.4 |
| 20260504200004 | 60 | 281 | 5.0 | 8.0 | 0.00 | 0.06 | 0.06 | 79 | 1008.2 |
| 20260504195903 | 61 | 273 | 5.0 | 8.0 | 0.00 | 0.06 | 0.06 | 78 | 1008.2 |
| 20260504195804 | 61 | 268 | 5.0 | 8.0 | 0.00 | 0.06 | 0.06 | 78 | 1008.4 |
| 20260504195704 | 61 | 270 | 6.0 | 8.0 | 0.00 | 0.06 | 0.06 | 78 | 1008.3 |
| 20260504195603 | 61 | 264 | 6.0 | 8.0 | 0.00 | 0.06 | 0.06 | 78 | 1008.2 |
| 20260504195503 | 61 | 260 | 6.0 | 8.0 | 0.00 | 0.06 | 0.06 | 78 | 1008.3 |
| 20260504195403 | 61 | 258 | 6.0 | 8.0 | 0.00 | 0.06 | 0.06 | 78 | 1008.3 |
| 20260504195304 | 61 | 260 | 7.0 | 8.0 | 0.00 | 0.06 | 0.06 | 78 | 1008.4 |
| 20260504195203 | 61 | 260 | 7.0 | 8.0 | 0.00 | 0.06 | 0.06 | 78 | 1008.4 |
| 20260504195104 | 61 | 259 | 7.0 | 8.0 | 0.00 | 0.06 | 0.06 | 78 | 1008.3 |
| 20260504195004 | 61 | 258 | 7.0 | 8.0 | 0.00 | 0.06 | 0.06 | 78 | 1008.2 |
| 20260504194905 | 61 | 264 | 7.0 | 8.0 | 0.00 | 0.06 | 0.06 | 78 | 1008.2 |
| 20260504194804 | 61 | 272 | 7.0 | 8.0 | 0.00 | 0.06 | 0.06 | 78 | 1008.2 |
| 20260504194705 | 61 | 274 | 6.0 | 8.0 | 0.00 | 0.06 | 0.06 | 78 | 1008.2 |
| 20260504194604 | 61 | 277 | 6.0 | 8.0 | 0.00 | 0.06 | 0.06 | 78 | 1008.3 |
| 20260504194504 | 61 | 283 | 6.0 | 8.0 | 0.00 | 0.06 | 0.06 | 78 | 1008.1 |
| 20260504194404 | 61 | 285 | 5.0 | 8.0 | 0.00 | 0.06 | 0.06 | 78 | 1008.2 |
| 20260504194304 | 61 | 285 | 5.0 | 8.0 | 0.00 | 0.06 | 0.06 | 79 | 1008.1 |
| 20260504194204 | 61 | 286 | 5.0 | 8.0 | 0.00 | 0.06 | 0.06 | 79 | 1008.0 |
| 20260504194104 | 61 | 281 | 4.0 | 8.0 | 0.00 | 0.06 | 0.06 | 79 | 1007.9 |
| 20260504194003 | 61 | 278 | 4.0 | 8.0 | 0.00 | 0.06 | 0.06 | 80 | 1008.0 |
| 20260504193904 | 60 | 275 | 3.0 | 6.0 | 0.00 | 0.06 | 0.06 | 80 | 1007.9 |
| 20260504193803 | 60 | 261 | 3.0 | 4.0 | 0.00 | 0.06 | 0.06 | 80 | 1008.0 |
| 20260504193704 | 60 | 256 | 3.0 | 4.0 | 0.00 | 0.06 | 0.06 | 80 | 1007.9 |
| 20260504193603 | 60 | 264 | 2.0 | 4.0 | 0.00 | 0.06 | 0.06 | 80 | 1007.8 |
| 20260504193503 | 60 | 259 | 2.0 | 4.0 | 0.00 | 0.06 | 0.06 | 80 | 1007.9 |
| 20260504193403 | 60 | 258 | 2.0 | 4.0 | 0.00 | 0.06 | 0.06 | 80 | 1007.8 |
| 20260504193304 | 60 | 251 | 2.0 | 4.0 | 0.00 | 0.06 | 0.06 | 80 | 1007.8 |
| 20260504193206 | 60 | 242 | 2.0 | 4.0 | 0.00 | 0.06 | 0.06 | 80 | 1007.8 |
| 20260504193103 | 60 | 246 | 2.0 | 4.0 | 0.00 | 0.06 | 0.06 | 80 | 1007.8 |
| 20260504193003 | 60 | 247 | 2.0 | 4.0 | 0.00 | 0.06 | 0.06 | 81 | 1007.9 |
| 20260504192903 | 60 | 248 | 2.0 | 4.0 | 0.00 | 0.06 | 0.06 | 81 | 1007.8 |
| 20260504192804 | 60 | 252 | 2.0 | 4.0 | 0.00 | 0.06 | 0.06 | 81 | 1007.8 |
| 20260504192704 | 60 | 255 | 3.0 | 4.0 | 0.00 | 0.06 | 0.06 | 81 | 1007.8 |
| 20260504192604 | 60 | 246 | 3.0 | 4.0 | 0.00 | 0.06 | 0.06 | 81 | 1007.8 |
| 20260504192504 | 60 | 242 | 3.0 | 4.0 | 0.00 | 0.06 | 0.06 | 81 | 1007.8 |
| 20260504192404 | 60 | 239 | 3.0 | 4.0 | 0.00 | 0.06 | 0.06 | 81 | 1007.8 |
| 20260504192304 | 60 | 236 | 3.0 | 4.0 | 0.00 | 0.06 | 0.06 | 81 | 1007.7 |
| 20260504192204 | 60 | 241 | 3.0 | 4.0 | 0.00 | 0.06 | 0.06 | 81 | 1007.8 |
| 20260504192104 | 60 | 239 | 3.0 | 5.0 | 0.00 | 0.06 | 0.06 | 81 | 1007.6 |
| 20260504191704 | 60 | 241 | 4.0 | 5.0 | 0.00 | 0.06 | 0.06 | 81 | 1007.8 |
| 20260504191603 | 60 | 240 | 4.0 | 7.0 | 0.00 | 0.06 | 0.06 | 81 | 1007.6 |
| 20260504191504 | 60 | 235 | 4.0 | 7.0 | 0.00 | 0.06 | 0.06 | 81 | 1007.7 |
| 20260504191404 | 60 | 231 | 4.0 | 8.0 | 0.00 | 0.06 | 0.06 | 81 | 1007.6 |
| 20260504191303 | 60 | 231 | 5.0 | 8.0 | 0.00 | 0.06 | 0.06 | 81 | 1007.7 |
| 20260504191203 | 60 | 231 | 5.0 | 8.0 | 0.00 | 0.06 | 0.06 | 81 | 1007.6 |
| 20260504191103 | 60 | 231 | 5.0 | 8.0 | 0.00 | 0.06 | 0.06 | 81 | 1007.5 |
| 20260504191003 | 60 | 224 | 4.0 | 8.0 | 0.00 | 0.06 | 0.06 | 81 | 1007.5 |
| 20260504190903 | 60 | 220 | 5.0 | 8.0 | 0.00 | 0.06 | 0.06 | 81 | 1007.5 |
| 20260504190803 | 60 | 229 | 5.0 | 8.0 | 0.00 | 0.06 | 0.06 | 81 | 1007.4 |
| 20260504190703 | 60 | 230 | 5.0 | 8.0 | 0.00 | 0.06 | 0.06 | 81 | 1007.6 |
| 20260504190603 | 60 | 233 | 5.0 | 8.0 | 0.00 | 0.06 | 0.06 | 81 | 1007.6 |
| 20260504190504 | 60 | 237 | 5.0 | 8.0 | 0.00 | 0.06 | 0.06 | 81 | 1007.6 |
| 20260504190404 | 60 | 247 | 5.0 | 8.0 | 0.00 | 0.06 | 0.06 | 81 | 1007.5 |
| 20260504190304 | 60 | 246 | 5.0 | 8.0 | 0.00 | 0.06 | 0.06 | 81 | 1007.6 |
| 20260504190204 | 60 | 254 | 5.0 | 8.0 | 0.00 | 0.06 | 0.06 | 81 | 1007.5 |
| 20260504190104 | 60 | 256 | 6.0 | 8.0 | 0.00 | 0.06 | 0.06 | 81 | 1007.6 |
| 20260504190004 | 60 | 251 | 6.0 | 8.0 | 0.00 | 0.06 | 0.06 | 81 | 1007.6 |
| 20260504185904 | 60 | 253 | 6.0 | 8.0 | 0.00 | 0.06 | 0.06 | 81 | 1007.6 |
| 20260504185804 | 60 | 249 | 6.0 | 8.0 | 0.00 | 0.06 | 0.06 | 81 | 1007.6 |
| 20260504185704 | 60 | 247 | 6.0 | 8.0 | 0.00 | 0.06 | 0.06 | 81 | 1007.6 |
| 20260504185604 | 60 | 242 | 6.0 | 8.0 | 0.00 | 0.06 | 0.06 | 81 | 1007.5 |
| 20260504185504 | 60 | 235 | 6.0 | 8.0 | 0.00 | 0.06 | 0.06 | 81 | 1007.5 |
| 20260504185404 | 60 | 230 | 6.0 | 8.0 | 0.00 | 0.06 | 0.06 | 81 | 1007.5 |
| 20260504185304 | 60 | 242 | 6.0 | 8.0 | 0.00 | 0.06 | 0.06 | 81 | 1007.6 |
| 20260504185204 | 60 | 237 | 6.0 | 8.0 | 0.00 | 0.06 | 0.06 | 81 | 1007.6 |
| 20260504185103 | 60 | 242 | 6.0 | 8.0 | 0.00 | 0.06 | 0.06 | 81 | 1007.6 |
| 20260504185003 | 60 | 252 | 5.0 | 8.0 | 0.00 | 0.06 | 0.06 | 81 | 1007.5 |
| 20260504184904 | 60 | 260 | 5.0 | 8.0 | 0.00 | 0.06 | 0.06 | 81 | 1007.6 |
| 20260504184803 | 60 | 260 | 5.0 | 8.0 | 0.00 | 0.06 | 0.06 | 81 | 1007.5 |
| 20260504184703 | 60 | 266 | 5.0 | 8.0 | 0.00 | 0.06 | 0.06 | 81 | 1007.7 |
| 20260504184603 | 60 | 275 | 5.0 | 8.0 | 0.00 | 0.06 | 0.06 | 81 | 1007.5 |
| 20260504184504 | 60 | 282 | 5.0 | 8.0 | 0.00 | 0.06 | 0.06 | 81 | 1007.5 |
| 20260504184404 | 60 | 285 | 5.0 | 8.0 | 0.00 | 0.06 | 0.06 | 81 | 1007.6 |
| 20260504184304 | 60 | 280 | 5.0 | 9.0 | 0.00 | 0.06 | 0.06 | 81 | 1007.4 |
| 20260504184204 | 60 | 276 | 6.0 | 9.0 | 0.00 | 0.06 | 0.06 | 81 | 1007.5 |
| 20260504184104 | 60 | 279 | 6.0 | 9.0 | 0.00 | 0.06 | 0.06 | 81 | 1007.6 |
| 20260504184004 | 60 | 273 | 6.0 | 9.0 | 0.00 | 0.06 | 0.06 | 81 | 1007.6 |
| 20260504183904 | 60 | 270 | 6.0 | 9.0 | 0.00 | 0.06 | 0.06 | 81 | 1007.5 |
| 20260504183804 | 60 | 274 | 6.0 | 9.0 | 0.00 | 0.06 | 0.06 | 81 | 1007.4 |
| 20260504183704 | 60 | 270 | 6.0 | 9.0 | 0.00 | 0.06 | 0.06 | 81 | 1007.3 |
| 20260504183604 | 60 | 263 | 6.0 | 9.0 | 0.00 | 0.06 | 0.06 | 81 | 1007.5 |
| 20260504183504 | 60 | 263 | 7.0 | 9.0 | 0.00 | 0.06 | 0.06 | 81 | 1007.5 |
| 20260504183403 | 60 | 256 | 7.0 | 9.0 | 0.00 | 0.06 | 0.06 | 81 | 1007.3 |
| 20260504183303 | 60 | 254 | 6.0 | 9.0 | 0.00 | 0.06 | 0.06 | 80 | 1007.3 |
| 20260504183203 | 60 | 254 | 6.0 | 8.0 | 0.00 | 0.06 | 0.06 | 80 | 1007.4 |
| 20260504183103 | 60 | 254 | 6.0 | 8.0 | 0.00 | 0.06 | 0.06 | 80 | 1007.5 |
| 20260504183003 | 60 | 262 | 6.0 | 8.0 | 0.00 | 0.06 | 0.06 | 80 | 1007.3 |
| 20260504182903 | 60 | 261 | 6.0 | 8.0 | 0.00 | 0.06 | 0.06 | 80 | 1007.3 |
| 20260504182803 | 60 | 254 | 6.0 | 8.0 | 0.00 | 0.06 | 0.06 | 80 | 1007.4 |
| 20260504182703 | 60 | 259 | 6.0 | 8.0 | 0.00 | 0.06 | 0.06 | 80 | 1007.4 |
| 20260504182603 | 60 | 267 | 6.0 | 8.0 | 0.00 | 0.06 | 0.06 | 80 | 1007.5 |
| 20260504182504 | 60 | 256 | 5.0 | 8.0 | 0.00 | 0.06 | 0.06 | 80 | 1007.5 |
| 20260504182404 | 60 | 267 | 5.0 | 8.0 | 0.00 | 0.06 | 0.06 | 79 | 1007.4 |
| 20260504182304 | 60 | 300 | 5.0 | 8.0 | 0.00 | 0.06 | 0.06 | 79 | 1007.5 |
| 20260504182204 | 60 | 336 | 5.0 | 8.0 | 0.00 | 0.06 | 0.06 | 79 | 1007.5 |
| 20260504182104 | 60 | 333 | 6.0 | 8.0 | 0.00 | 0.06 | 0.06 | 79 | 1007.4 |
| 20260504181704 | 61 | 280 | 6.0 | 8.0 | 0.00 | 0.06 | 0.06 | 78 | 1007.5 |
| 20260504181604 | 61 | 278 | 7.0 | 9.0 | 0.00 | 0.06 | 0.06 | 78 | 1007.6 |
| 20260504181503 | 61 | 288 | 7.0 | 10.0 | 0.00 | 0.06 | 0.06 | 77 | 1007.5 |
| 20260504181404 | 61 | 298 | 7.0 | 10.0 | 0.00 | 0.06 | 0.06 | 77 | 1007.5 |
| 20260504181303 | 61 | 314 | 8.0 | 10.0 | 0.00 | 0.06 | 0.06 | 77 | 1007.6 |
| 20260504181203 | 61 | 326 | 8.0 | 10.0 | 0.00 | 0.06 | 0.06 | 77 | 1007.6 |
| 20260504181103 | 61 | 335 | 8.0 | 10.0 | 0.00 | 0.06 | 0.06 | 76 | 1007.6 |
| 20260504181003 | 61 | 347 | 8.0 | 10.0 | 0.00 | 0.06 | 0.06 | 76 | 1007.5 |
| 20260504180903 | 61 | 344 | 9.0 | 11.0 | 0.00 | 0.06 | 0.06 | 76 | 1007.6 |
| 20260504180803 | 61 | 334 | 9.0 | 11.0 | 0.00 | 0.06 | 0.06 | 76 | 1007.6 |
| 20260504180704 | 62 | 331 | 9.0 | 11.0 | 0.00 | 0.06 | 0.06 | 76 | 1007.5 |
| 20260504180605 | 62 | 334 | 9.0 | 11.0 | 0.00 | 0.06 | 0.06 | 76 | 1007.7 |
| 20260504180504 | 62 | 335 | 9.0 | 11.0 | 0.00 | 0.06 | 0.06 | 75 | 1007.5 |
| 20260504180404 | 62 | 326 | 8.0 | 11.0 | 0.00 | 0.06 | 0.06 | 75 | 1007.6 |
| 20260504180304 | 62 | 313 | 8.0 | 11.0 | 0.00 | 0.06 | 0.06 | 75 | 1007.5 |
| 20260504180204 | 62 | 294 | 7.0 | 11.0 | 0.00 | 0.06 | 0.06 | 75 | 1007.5 |
| 20260504180104 | 62 | 277 | 7.0 | 11.0 | 0.00 | 0.06 | 0.06 | 75 | 1007.8 |
| 20260504180004 | 62 | 256 | 6.0 | 11.0 | 0.00 | 0.06 | 0.06 | 75 | 1007.7 |
| 20260504175904 | 62 | 247 | 6.0 | 11.0 | 0.00 | 0.06 | 0.06 | 75 | 1007.7 |
| 20260504175804 | 62 | 249 | 5.0 | 8.0 | 0.00 | 0.06 | 0.06 | 75 | 1007.7 |
| 20260504175704 | 62 | 255 | 5.0 | 10.0 | 0.00 | 0.06 | 0.06 | 75 | 1007.7 |
| 20260504175603 | 62 | 265 | 6.0 | 10.0 | 0.00 | 0.06 | 0.06 | 75 | 1007.5 |
| 20260504175503 | 62 | 277 | 6.0 | 10.0 | 0.00 | 0.06 | 0.06 | 75 | 1007.7 |
| 20260504175403 | 62 | 288 | 6.0 | 10.0 | 0.00 | 0.06 | 0.06 | 74 | 1007.7 |
| 20260504175304 | 62 | 291 | 7.0 | 10.0 | 0.00 | 0.06 | 0.06 | 74 | 1007.6 |
| 20260504175203 | 62 | 308 | 7.0 | 10.0 | 0.00 | 0.06 | 0.06 | 74 | 1007.8 |
| 20260504175103 | 63 | 306 | 7.0 | 10.0 | 0.00 | 0.06 | 0.06 | 74 | 1007.7 |
| 20260504175003 | 63 | 308 | 7.0 | 10.0 | 0.00 | 0.06 | 0.06 | 74 | 1007.8 |
| 20260504174903 | 63 | 307 | 7.0 | 10.0 | 0.00 | 0.06 | 0.06 | 74 | 1007.8 |
| 20260504174804 | 63 | 296 | 7.0 | 10.0 | 0.00 | 0.06 | 0.06 | 74 | 1007.8 |
| 20260504174704 | 63 | 297 | 7.0 | 10.0 | 0.00 | 0.06 | 0.06 | 74 | 1007.7 |
| 20260504174604 | 63 | 280 | 6.0 | 8.0 | 0.00 | 0.06 | 0.06 | 74 | 1007.7 |
| 20260504174504 | 63 | 273 | 6.0 | 10.0 | 0.00 | 0.06 | 0.06 | 74 | 1007.7 |
| 20260504174404 | 63 | 265 | 6.0 | 10.0 | 0.00 | 0.06 | 0.06 | 73 | 1007.7 |
| 20260504174304 | 63 | 263 | 6.0 | 10.0 | 0.00 | 0.06 | 0.06 | 73 | 1007.8 |
| 20260504174204 | 63 | 256 | 6.0 | 10.0 | 0.00 | 0.06 | 0.06 | 73 | 1007.8 |
| 20260504174104 | 63 | 254 | 6.0 | 10.0 | 0.00 | 0.06 | 0.06 | 73 | 1007.8 |
| 20260504174004 | 63 | 244 | 6.0 | 10.0 | 0.00 | 0.06 | 0.06 | 73 | 1007.7 |
| 20260504173903 | 63 | 248 | 7.0 | 10.0 | 0.00 | 0.06 | 0.06 | 73 | 1007.7 |
| 20260504173803 | 63 | 249 | 7.0 | 10.0 | 0.00 | 0.06 | 0.06 | 73 | 1007.7 |
| 20260504173703 | 64 | 240 | 7.0 | 10.0 | 0.00 | 0.06 | 0.06 | 70 | 1007.7 |
| 20260504173603 | 64 | 239 | 7.0 | 10.0 | 0.00 | 0.06 | 0.06 | 70 | 1007.7 |
| 20260504173503 | 64 | 238 | 7.0 | 8.0 | 0.00 | 0.06 | 0.06 | 70 | 1007.7 |
| 20260504173403 | 64 | 241 | 7.0 | 8.0 | 0.00 | 0.06 | 0.06 | 70 | 1007.7 |
| 20260504173303 | 64 | 248 | 7.0 | 8.0 | 0.00 | 0.06 | 0.06 | 70 | 1007.8 |
| 20260504173203 | 64 | 253 | 7.0 | 8.0 | 0.00 | 0.06 | 0.06 | 70 | 1007.7 |
| 20260504173103 | 64 | 265 | 7.0 | 8.0 | 0.00 | 0.06 | 0.06 | 70 | 1007.8 |
| 20260504173003 | 64 | 277 | 7.0 | 8.0 | 0.00 | 0.06 | 0.06 | 70 | 1007.7 |
| 20260504172904 | 64 | 272 | 7.0 | 8.0 | 0.00 | 0.06 | 0.06 | 70 | 1007.7 |
| 20260504172804 | 64 | 276 | 7.0 | 8.0 | 0.00 | 0.06 | 0.06 | 70 | 1007.6 |
| 20260504172704 | 64 | 287 | 6.0 | 8.0 | 0.00 | 0.06 | 0.06 | 70 | 1007.8 |
| 20260504172604 | 64 | 299 | 6.0 | 8.0 | 0.00 | 0.06 | 0.06 | 70 | 1007.8 |
| 20260504172504 | 64 | 307 | 6.0 | 8.0 | 0.00 | 0.06 | 0.06 | 70 | 1007.8 |
| 20260504172404 | 64 | 316 | 6.0 | 8.0 | 0.00 | 0.06 | 0.06 | 70 | 1007.8 |
| 20260504172304 | 64 | 321 | 6.0 | 8.0 | 0.00 | 0.06 | 0.06 | 70 | 1007.6 |
| 20260504172204 | 64 | 311 | 6.0 | 8.0 | 0.00 | 0.06 | 0.06 | 70 | 1007.7 |
| 20260504172105 | 64 | 294 | 7.0 | 8.0 | 0.00 | 0.06 | 0.06 | 70 | 1007.6 |
| 20260504171704 | 64 | 262 | 6.0 | 10.0 | 0.00 | 0.06 | 0.06 | 70 | 1007.8 |
| 20260504171604 | 64 | 263 | 6.0 | 10.0 | 0.00 | 0.06 | 0.06 | 70 | 1007.8 |
| 20260504171504 | 64 | 269 | 5.0 | 10.0 | 0.00 | 0.06 | 0.06 | 70 | 1007.8 |
| 20260504171403 | 64 | 270 | 5.0 | 10.0 | 0.00 | 0.06 | 0.06 | 70 | 1007.7 |
| 20260504171304 | 64 | 269 | 5.0 | 10.0 | 0.00 | 0.06 | 0.06 | 70 | 1007.6 |
| 20260504171204 | 64 | 264 | 5.0 | 10.0 | 0.00 | 0.06 | 0.06 | 70 | 1007.7 |
| 20260504171103 | 65 | 257 | 5.0 | 10.0 | 0.00 | 0.06 | 0.06 | 70 | 1007.5 |
| 20260504171003 | 65 | 260 | 5.0 | 10.0 | 0.00 | 0.06 | 0.06 | 70 | 1007.7 |
| 20260504170903 | 65 | 261 | 5.0 | 10.0 | 0.00 | 0.06 | 0.06 | 70 | 1007.8 |
| 20260504170803 | 65 | 256 | 5.0 | 10.0 | 0.00 | 0.06 | 0.06 | 70 | 1007.6 |
| 20260504170703 | 65 | 249 | 4.0 | 8.0 | 0.00 | 0.06 | 0.06 | 70 | 1007.7 |
| 20260504170603 | 65 | 240 | 4.0 | 8.0 | 0.00 | 0.06 | 0.06 | 70 | 1007.7 |
| 20260504170504 | 65 | 232 | 3.0 | 8.0 | 0.00 | 0.06 | 0.06 | 70 | 1007.6 |
| 20260504170403 | 65 | 218 | 3.0 | 6.0 | 0.00 | 0.06 | 0.06 | 70 | 1007.6 |
| 20260504170303 | 65 | 215 | 3.0 | 6.0 | 0.00 | 0.06 | 0.06 | 70 | 1007.3 |
| 20260504170203 | 65 | 210 | 2.0 | 6.0 | 0.00 | 0.06 | 0.06 | 70 | 1007.6 |
| 20260504160403 | 67 | 180 | 2.0 | 3.0 | 0.00 | 0.06 | 0.06 | 65 | 1007.7 |
| 20260504160303 | 67 | 179 | 2.0 | 3.0 | 0.00 | 0.06 | 0.06 | 65 | 1007.7 |
| 20260504160203 | 67 | 177 | 1.0 | 3.0 | 0.00 | 0.06 | 0.06 | 65 | 1007.8 |
| 20260504160104 | 67 | 175 | 1.0 | 3.0 | 0.00 | 0.06 | 0.06 | 65 | 1007.6 |
| 20260504151103 | 65 | 219 | 2.0 | 8.0 | 0.00 | 0.06 | 0.06 | 67 | 1007.8 |
| 20260504151003 | 65 | 209 | 1.0 | 8.0 | 0.00 | 0.06 | 0.06 | 67 | 1007.6 |
| 20260504150903 | 65 | 213 | 1.0 | 8.0 | 0.00 | 0.06 | 0.06 | 67 | 1007.6 |
| 20260504150804 | 65 | 215 | 1.0 | 8.0 | 0.00 | 0.06 | 0.06 | 67 | 1007.7 |
| 20260504150704 | 65 | 216 | 1.0 | 8.0 | 0.00 | 0.06 | 0.06 | 67 | 1007.7 |
| 20260504150604 | 65 | 226 | 1.0 | 8.0 | 0.00 | 0.06 | 0.06 | 67 | 1007.9 |
| 20260504150504 | 65 | 257 | 1.0 | 3.0 | 0.00 | 0.06 | 0.06 | 67 | 1007.8 |
| 20260504150404 | 65 | 260 | 1.0 | 3.0 | 0.00 | 0.06 | 0.06 | 67 | 1007.8 |
| 20260504150304 | 65 | 250 | 1.0 | 3.0 | 0.00 | 0.06 | 0.06 | 67 | 1007.6 |
| 20260504150204 | 65 | 238 | 1.0 | 3.0 | 0.00 | 0.06 | 0.06 | 67 | 1007.8 |
| 20260504150104 | 65 | 231 | 2.0 | 3.0 | 0.00 | 0.06 | 0.06 | 67 | 1007.7 |
| 20260504141304 | 67 | 199 | 2.0 | 4.0 | 0.00 | 0.06 | 0.06 | 61 | 1008.1 |
| 20260504141204 | 67 | 193 | 2.0 | 4.0 | 0.00 | 0.06 | 0.06 | 61 | 1008.1 |
| 20260504141104 | 67 | 184 | 2.0 | 4.0 | 0.00 | 0.06 | 0.06 | 61 | 1008.1 |
| 20260504141004 | 67 | 185 | 2.0 | 4.0 | 0.00 | 0.06 | 0.06 | 61 | 1008.1 |
| 20260504140904 | 67 | 182 | 2.0 | 4.0 | 0.00 | 0.06 | 0.06 | 61 | 1008.1 |
| 20260504140804 | 67 | 190 | 2.0 | 4.0 | 0.00 | 0.06 | 0.06 | 61 | 1008.1 |
| 20260504140704 | 67 | 194 | 2.0 | 4.0 | 0.00 | 0.06 | 0.06 | 61 | 1008.1 |
| 20260504140604 | 67 | 191 | 2.0 | 4.0 | 0.00 | 0.06 | 0.06 | 61 | 1008.1 |
| 20260504140504 | 67 | 193 | 2.0 | 4.0 | 0.00 | 0.06 | 0.06 | 60 | 1008.1 |
| 20260504140404 | 67 | 191 | 2.0 | 4.0 | 0.00 | 0.06 | 0.06 | 60 | 1008.0 |
| 20260504140304 | 67 | 199 | 2.0 | 5.0 | 0.00 | 0.06 | 0.06 | 60 | 1008.1 |
| 20260504140203 | 67 | 202 | 3.0 | 5.0 | 0.00 | 0.06 | 0.06 | 60 | 1008.0 |
| 20260504140103 | 67 | 206 | 3.0 | 7.0 | 0.00 | 0.06 | 0.06 | 60 | 1008.1 |
| 20260504130803 | 70 | 213 | 3.0 | 8.0 | 0.00 | 0.06 | 0.06 | 52 | 1008.4 |
| 20260504130703 | 71 | 210 | 2.0 | 8.0 | 0.00 | 0.06 | 0.06 | 53 | 1008.2 |
| 20260504130603 | 71 | 212 | 3.0 | 5.0 | 0.00 | 0.06 | 0.06 | 53 | 1008.4 |
| 20260504130503 | 71 | 218 | 3.0 | 5.0 | 0.00 | 0.06 | 0.06 | 53 | 1008.4 |
| 20260504130403 | 71 | 221 | 3.0 | 5.0 | 0.00 | 0.06 | 0.06 | 53 | 1008.4 |
| 20260504130303 | 71 | 221 | 3.0 | 5.0 | 0.00 | 0.06 | 0.06 | 53 | 1008.3 |
| 20260504130203 | 71 | 216 | 3.0 | 5.0 | 0.00 | 0.06 | 0.06 | 53 | 1008.4 |
| 20260504130103 | 71 | 219 | 3.0 | 5.0 | 0.00 | 0.06 | 0.06 | 53 | 1008.3 |
| 20260504120303 | 69 | 217 | 3.0 | 5.0 | 0.00 | 0.06 | 0.06 | 50 | 1008.5 |
| 20260504120203 | 69 | 223 | 3.0 | 5.0 | 0.00 | 0.06 | 0.06 | 50 | 1008.5 |
| 20260504120103 | 69 | 242 | 3.0 | 8.0 | 0.00 | 0.06 | 0.06 | 50 | 1008.5 |
| 20260504110703 | 71 | 158 | 0.0 | 1.0 | 0.00 | 0.06 | 0.06 | 46 | 1008.5 |
| 20260504110603 | 71 | 158 | 0.0 | 1.0 | 0.00 | 0.06 | 0.06 | 46 | 1008.5 |
| 20260504110503 | 71 | 169 | 0.0 | 2.0 | 0.00 | 0.06 | 0.06 | 46 | 1008.5 |
| 20260504110403 | 71 | 216 | 0.0 | 2.0 | 0.00 | 0.06 | 0.06 | 45 | 1008.5 |
| 20260504110304 | 72 | 236 | 1.0 | 2.0 | 0.00 | 0.06 | 0.06 | 45 | 1008.6 |
| 20260504110203 | 72 | 236 | 1.0 | 2.0 | 0.00 | 0.06 | 0.06 | 45 | 1008.5 |
| 20260504110103 | 72 | 236 | 1.0 | 2.0 | 0.00 | 0.06 | 0.06 | 44 | 1008.5 |
| 20260504100603 | 72 | 206 | 1.0 | 6.0 | 0.00 | 0.06 | 0.06 | 41 | 1008.8 |
| 20260504100503 | 72 | 208 | 1.0 | 6.0 | 0.00 | 0.06 | 0.06 | 41 | 1008.7 |
| 20260504100403 | 72 | 219 | 2.0 | 6.0 | 0.00 | 0.06 | 0.06 | 41 | 1008.7 |
| 20260504100304 | 72 | 219 | 2.0 | 6.0 | 0.00 | 0.06 | 0.06 | 41 | 1008.7 |
| 20260504100204 | 72 | 215 | 2.0 | 6.0 | 0.00 | 0.06 | 0.06 | 41 | 1008.7 |
| 20260504100104 | 72 | 216 | 3.0 | 6.0 | 0.00 | 0.06 | 0.06 | 41 | 1008.7 |
| 20260504081704 | 68 | 180 | 1.0 | 4.0 | 0.00 | 0.06 | 0.06 | 46 | 1008.5 |
| 20260504081604 | 68 | 180 | 1.0 | 4.0 | 0.00 | 0.06 | 0.06 | 46 | 1008.6 |
| 20260504081504 | 67 | 180 | 1.0 | 4.0 | 0.00 | 0.06 | 0.06 | 46 | 1008.5 |
| 20260504081404 | 67 | 180 | 1.0 | 4.0 | 0.00 | 0.06 | 0.06 | 46 | 1008.6 |
| 20260504081303 | 67 | 180 | 1.0 | 4.0 | 0.00 | 0.06 | 0.06 | 45 | 1008.6 |
| 20260504081203 | 67 | 180 | 1.0 | 4.0 | 0.00 | 0.06 | 0.06 | 46 | 1008.6 |
| 20260504081103 | 67 | 180 | 1.0 | 4.0 | 0.00 | 0.06 | 0.06 | 45 | 1008.7 |
| 20260504081003 | 66 | 180 | 0.0 | 2.0 | 0.00 | 0.06 | 0.06 | 46 | 1008.6 |
| 20260504080903 | 66 | 0 | 0.0 | 0.0 | 0.00 | 0.06 | 0.06 | 46 | 1008.8 |
| 20260504080803 | 66 | 0 | 0.0 | 0.0 | 0.00 | 0.06 | 0.06 | 46 | 1008.8 |
| 20260504080703 | 64 | 0 | 0.0 | 0.0 | 0.00 | 0.06 | 0.06 | 44 | 1008.7 |
| 20260504080603 | 64 | 0 | 0.0 | 0.0 | 0.00 | 0.06 | 0.06 | 44 | 1008.6 |
| 20260504080503 | 64 | 0 | 0.0 | 0.0 | 0.00 | 0.06 | 0.06 | 44 | 1008.5 |
| 20260504080403 | 64 | 0 | 0.0 | 0.0 | 0.00 | 0.06 | 0.06 | 44 | 1008.6 |
| 20260504080305 | 64 | 0 | 0.0 | 0.0 | 0.00 | 0.06 | 0.06 | 44 | 1008.6 |
| 20260504080204 | 64 | 135 | 0.0 | 2.0 | 0.00 | 0.06 | 0.06 | 44 | 1008.8 |
| 20260504080104 | 64 | 190 | 0.0 | 2.0 | 0.00 | 0.06 | 0.06 | 44 | 1008.7 |
| 20260504070403 | 61 | 0 | 0.0 | 0.0 | 0.00 | 0.06 | 0.06 | 50 | 1008.5 |
| 20260504070303 | 61 | 0 | 0.0 | 0.0 | 0.00 | 0.06 | 0.06 | 50 | 1008.5 |
| 20260504070203 | 61 | 0 | 0.0 | 0.0 | 0.00 | 0.06 | 0.06 | 50 | 1008.5 |
| 20260504060203 | 56 | 0 | 0.0 | 0.0 | 0.00 | 0.06 | 0.06 | 62 | 1008.4 |
| 20260504050703 | 55 | 0 | 0.0 | 0.0 | 0.00 | 0.06 | 0.06 | 58 | 1008.2 |
| 20260504050603 | 55 | 0 | 0.0 | 0.0 | 0.00 | 0.06 | 0.06 | 58 | 1008.3 |
| 20260504050503 | 55 | 0 | 0.0 | 0.0 | 0.00 | 0.06 | 0.06 | 57 | 1008.2 |
| 20260504050403 | 55 | 0 | 0.0 | 0.0 | 0.00 | 0.06 | 0.06 | 57 | 1008.4 |
| 20260504050303 | 55 | 0 | 0.0 | 0.0 | 0.00 | 0.06 | 0.06 | 57 | 1008.3 |
| 20260504050204 | 55 | 0 | 0.0 | 0.0 | 0.00 | 0.06 | 0.06 | 57 | 1008.2 |
| 20260504050104 | 55 | 0 | 0.0 | 0.0 | 0.00 | 0.06 | 0.06 | 57 | 1008.4 |
| 20260504050004 | 55 | 0 | 0.0 | 0.0 | 0.00 | 0.06 | 0.06 | 57 | 1008.3 |
| 20260504045904 | 54 | 0 | 0.0 | 0.0 | 0.00 | 0.06 | 0.06 | 58 | 1008.3 |
| 20260504045804 | 54 | 0 | 0.0 | 0.0 | 0.00 | 0.06 | 0.06 | 58 | 1008.2 |
| 20260504045704 | 54 | 0 | 0.0 | 0.0 | 0.00 | 0.06 | 0.06 | 61 | 1008.2 |
| 20260504045604 | 54 | 0 | 0.0 | 0.0 | 0.00 | 0.06 | 0.06 | 62 | 1008.3 |
| 20260504045504 | 54 | 0 | 0.0 | 0.0 | 0.00 | 0.06 | 0.06 | 62 | 1008.3 |
| 20260504045403 | 54 | 0 | 0.0 | 0.0 | 0.00 | 0.06 | 0.06 | 62 | 1008.2 |
| 20260504045304 | 54 | 0 | 0.0 | 0.0 | 0.00 | 0.06 | 0.06 | 62 | 1008.2 |
| 20260504045203 | 54 | 38 | 0.0 | 2.0 | 0.00 | 0.06 | 0.06 | 62 | 1008.3 |
| 20260504045103 | 54 | 29 | 0.0 | 2.0 | 0.00 | 0.06 | 0.06 | 62 | 1008.2 |
| 20260504045004 | 54 | 29 | 0.0 | 2.0 | 0.00 | 0.06 | 0.06 | 62 | 1008.2 |
| 20260504044903 | 54 | 29 | 0.0 | 2.0 | 0.00 | 0.06 | 0.06 | 62 | 1008.2 |
| 20260504044803 | 54 | 29 | 0.0 | 2.0 | 0.00 | 0.06 | 0.06 | 62 | 1008.2 |
| 20260504044703 | 54 | 29 | 0.0 | 2.0 | 0.00 | 0.06 | 0.06 | 62 | 1008.1 |
| 20260504044603 | 54 | 29 | 0.0 | 2.0 | 0.00 | 0.06 | 0.06 | 62 | 1008.3 |
| 20260504044503 | 54 | 29 | 0.0 | 2.0 | 0.00 | 0.06 | 0.06 | 62 | 1008.2 |
| 20260504044403 | 54 | 29 | 0.0 | 2.0 | 0.00 | 0.06 | 0.06 | 61 | 1008.2 |
| 20260504044304 | 54 | 29 | 0.0 | 2.0 | 0.00 | 0.06 | 0.06 | 58 | 1008.2 |
| 20260504044204 | 54 | 22 | 0.0 | 2.0 | 0.00 | 0.06 | 0.06 | 58 | 1008.3 |
| 20260504044104 | 54 | 0 | 0.0 | 0.0 | 0.00 | 0.06 | 0.06 | 57 | 1008.3 |
| 20260504044004 | 54 | 0 | 0.0 | 0.0 | 0.00 | 0.06 | 0.06 | 57 | 1008.2 |
| 20260504043904 | 54 | 0 | 0.0 | 0.0 | 0.00 | 0.06 | 0.06 | 56 | 1008.1 |
| 20260504043804 | 55 | 0 | 0.0 | 0.0 | 0.00 | 0.06 | 0.06 | 56 | 1008.3 |
| 20260504043704 | 55 | 0 | 0.0 | 0.0 | 0.00 | 0.06 | 0.06 | 56 | 1008.3 |
| 20260504043603 | 55 | 0 | 0.0 | 0.0 | 0.00 | 0.06 | 0.06 | 56 | 1008.3 |
| 20260504043503 | 55 | 0 | 0.0 | 0.0 | 0.00 | 0.06 | 0.06 | 55 | 1008.2 |
| 20260504043403 | 55 | 0 | 0.0 | 0.0 | 0.00 | 0.06 | 0.06 | 55 | 1008.1 |
| 20260504043303 | 55 | 0 | 0.0 | 0.0 | 0.00 | 0.06 | 0.06 | 55 | 1008.3 |
| 20260504043203 | 55 | 0 | 0.0 | 0.0 | 0.00 | 0.06 | 0.06 | 55 | 1008.1 |
| 20260504043103 | 55 | 0 | 0.0 | 0.0 | 0.00 | 0.06 | 0.06 | 55 | 1008.3 |
| 20260504043003 | 55 | 0 | 0.0 | 0.0 | 0.00 | 0.06 | 0.06 | 55 | 1008.2 |
| 20260504042903 | 55 | 0 | 0.0 | 0.0 | 0.00 | 0.06 | 0.06 | 55 | 1008.2 |
| 20260504042803 | 55 | 0 | 0.0 | 0.0 | 0.00 | 0.06 | 0.06 | 55 | 1008.3 |
| 20260504042704 | 55 | 0 | 0.0 | 0.0 | 0.00 | 0.06 | 0.06 | 55 | 1008.3 |
| 20260504042603 | 55 | 0 | 0.0 | 0.0 | 0.00 | 0.06 | 0.06 | 55 | 1008.3 |
| 20260504042503 | 55 | 0 | 0.0 | 0.0 | 0.00 | 0.06 | 0.06 | 56 | 1008.3 |
| 20260504042403 | 54 | 0 | 0.0 | 0.0 | 0.00 | 0.06 | 0.06 | 56 | 1008.5 |